[TLELIST] Archives

 

Current TLEs

January 6th 2008 PST

HST 1 20580U 90037B 08003.30960217 .00000306 00000-0 10862-4 0 400 2 20580 028.4695 325.0752 0003855 067.3666 292.7329 15.00321482770048 ISS (ZARYA) 1 25544U 98067A 08004.72996550 .00015442 00000-0 91331-4 0 6472 2 25544 051.6376 144.5379 0002259 033.2281 108.8032 15.78334141522570 CXO 1 25867U 99040B 08006.29166667 .00000275 00000-0 10000-3 0 1537 2 25867 062.9502 084.6849 6549411 280.8774 001.3165 00.37804275 3015 ____________________________________________________________________ These 2-Line ...Continue Reading

Current TLEs

January 5th 2008 PST

HST 1 20580U 90037B 08002.97699398 +.00000290 +00000-0 +96416-5 0 00447 2 20580 028.4695 327.2448 0003781 063.7898 296.3080 15.00321266769995 ISS (ZARYA) 1 25544U 98067A 08004.39670630 .00014942 00000-0 88559-4 0 6431 2 25544 051.6379 146.2605 0002218 033.8447 013.3246 15.78321167522525 CXO 1 25867U 99040B 08003.62500000 .00000257 00000-0 10000-3 0 1523 2 25867 062.9394 084.7361 6542797 280.9227 358.2660 00.37803773 3003 ____________________________________________________________________ These 2-Line ...Continue Reading

Current TLEs

January 4th 2008 PST

HST 1 20580U 90037B 08002.17873385 .00000297 00000-0 10135-4 0 393 2 20580 028.4694 332.4496 0003769 054.7889 305.3052 15.00321066769876 ISS (ZARYA) 1 25544U 98067A 08003.39150059 .00014027 00000-0 83503-4 0 6368 2 25544 051.6380 151.4563 0002224 029.5784 062.2380 15.78286420522367 CXO 1 25867U 99040B 08003.62500000 .00000257 00000-0 10000-3 0 1523 2 25867 062.9394 084.7361 6542797 280.9227 358.2660 00.37803773 3003 ____________________________________________________________________ These 2-Line ...Continue Reading

Current TLEs

January 3rd 2008 PST

HST 1 20580U 90037B 07365.98134308 +.00000294 +00000-0 +99389-5 0 00394 2 20580 028.4696 340.2586 0003636 041.8036 318.2833 15.00320765769694 ISS (ZARYA) 1 25544U 98067A 08001.55482480 .00012753 00000-0 76472-4 0 6248 2 25544 051.6375 160.9470 0001928 023.1427 066.1011 15.78228558522077 CXO 1 25867U 99040B 08001.00000000 +.00000264 +00000-0 +10000-3 0 01515 2 25867 062.9258 084.7757 6537144 280.9807 000.8623 00.37804474002990 ____________________________________________________________________ These 2-Line ...Continue Reading

Current TLEs

January 2nd 2008 PST

HST 1 20580U 90037B 07364.18525627 .00000278 00000-0 86937-5 0 378 2 20580 028.4695 351.9723 0003540 021.0813 338.9913 15.00320151769420 ISS (ZARYA) 1 25544U 98067A 07364.73670139 .00012334 00000-0 74251-4 0 6113 2 25544 051.6368 170.3413 0001671 018.3222 174.1994 15.78178742521781 CXO 1 25867U 99040B 08001.00000000 +.00000264 +00000-0 +10000-3 0 01515 2 25867 062.9258 084.7757 6537144 280.9807 000.8623 00.37804474002990 ____________________________________________________________________ These 2-Line ...Continue Reading

Current TLEs

January 1st 2008 PST

HST 1 20580U 90037B 07363.38699539 +.00000314 +00000-0 +11481-4 0 00465 2 20580 028.4693 357.1772 0003591 013.2241 346.8443 15.00320161769308 ISS (ZARYA) 1 25544U 98067A 07363.72101852 .00011735 00000-0 70929-4 0 6046 2 25544 051.6368 175.5906 0001625 012.7664 165.3449 15.78150047521620 CXO 1 25867U 99040B 07363.29166667 +.00000274 +00000-0 +10000-3 0 01508 2 25867 062.9134 084.8307 6532656 281.0319 352.0915 00.37804979002983 ____________________________________________________________________ These 2-Line ...Continue Reading

Current TLEs

December 31st 2007 PST

HST 1 20580U 90037B 07362.45568996 +.00000323 +00000-0 +12151-4 0 00368 2 20580 028.4694 003.2498 0003451 001.5089 358.5512 15.00319979769164 ISS (ZARYA) 1 25544U 98067A 07362.77247685 .00011027 00000-0 66962-4 0 5983 2 25544 051.6365 180.4913 0001603 013.7925 171.7208 15.78124795521475 CXO 1 25867U 99040B 07363.29166667 +.00000274 +00000-0 +10000-3 0 01508 2 25867 062.9134 084.8307 6532656 281.0319 352.0915 00.37804979002983 ____________________________________________________________________ These 2-Line ...Continue Reading

Current TLEs

December 30th 2007 PST

HST 1 20580U 90037B 07361.45786299 +.00000349 +00000-0 +14227-4 0 00459 2 20580 028.4692 009.7574 0003401 349.2976 010.7542 15.00319820769019 ISS (ZARYA) 1 25544U 98067A 07360.53972256 .00012597 00000-0 76236-4 0 5803 2 25544 051.6376 192.0255 0001257 012.3107 079.9741 15.78033552521120 CXO 1 25867U 99040B 07360.66666667 +.00000252 +00000-0 +10000-3 0 01495 2 25867 062.9081 084.9116 6527127 281.0735 354.6873 00.37801467002971 ____________________________________________________________________ These 2-Line ...Continue Reading

Current TLEs

December 29th 2007 PST

HST 1 20580U 90037B 07358.19829455 .00000401 00000-0 18245-4 0 338 2 20580 028.4685 031.0153 0003477 308.4536 051.5739 15.00318796768521 ISS (ZARYA) 1 25544U 98067A 07358.50968234 .00019813 00000-0 11778-3 0 5670 2 25544 051.6389 202.5114 0001208 011.3376 060.8870 15.78000751520809 CXO 1 25867U 99040B 07360.66666667 +.00000252 +00000-0 +10000-3 0 01495 2 25867 062.9081 084.9116 6527127 281.0735 354.6873 00.37801467002971 ____________________________________________________________________ These 2-Line ...Continue Reading

Current TLEs

December 28th 2007 PST

HST 1 20580U 90037B 07359.46220918 +.00000385 +00000-0 +16984-4 0 00348 2 20580 028.4688 022.7729 0003387 324.7492 035.2874 15.00319263768712 ISS (ZARYA) 1 25544U 98067A 07357.89940972 .00020531 00000-0 12201-3 0 5659 2 25544 051.6388 205.6643 0001316 017.0677 186.0078 15.77978983520706 CXO 1 25867U 99040B 07360.66666667 +.00000252 +00000-0 +10000-3 0 01495 2 25867 062.9081 084.9116 6527127 281.0735 354.6873 00.37801467002971 ____________________________________________________________________ These 2-Line ...Continue Reading
  • This mailing list is a public mailing list - anyone may join or leave, at any time.
  • This mailing list is announce-only.

International Space Station (ISS) / Hubble Space Telescope (HST) / Chandra X-Ray Observatory Orbital Data via EMAIL

Privacy Policy:

Private list